owner,sensor,date,latitude,longitude,vertical_datum,mass_concentration_of_oxygen_in_sea_water,qcFlag 
DISL,ioos:station:DISL:CATA:1,2013-03-01T00:00:00Z,30.3085,-88.1395,2.019,10.23,1111122 
DISL,ioos:station:DISL:CATA:1,2013-03-01T00:30:00Z,30.3085,-88.1395,1.996,10.27,1111122 
DISL,ioos:station:DISL:CATA:1,2013-03-01T01:00:00Z,30.3085,-88.1395,1.974,10.34,1111122 
DISL,ioos:station:DISL:CATA:1,2013-03-01T01:30:00Z,30.3085,-88.1395,1.954,10.21,1111122 
DISL,ioos:station:DISL:CATA:1,2013-03-01T02:00:00Z,30.3085,-88.1395,1.935,9.94,1111122 
DISL,ioos:station:DISL:CATA:1,2013-03-01T02:30:00Z,30.3085,-88.1395,1.933,9.7,1111122 
DISL,ioos:station:DISL:CATA:1,2013-03-01T03:00:00Z,30.3085,-88.1395,1.92,9.72,1111122 
DISL,ioos:station:DISL:CATA:1,2013-03-01T03:30:00Z,30.3085,-88.1395,1.931,9.8,1111122 
DISL,ioos:station:DISL:CATA:1,2013-03-01T04:00:00Z,30.3085,-88.1395,1.943,9.81,1111122 
DISL,ioos:station:DISL:CATA:1,2013-03-01T04:30:00Z,30.3085,-88.1395,1.944,9.76,1111122 
DISL,ioos:station:DISL:CATA:1,2013-03-01T05:00:00Z,30.3085,-88.1395,1.944,9.79,1111122 
DISL,ioos:station:DISL:CATA:1,2013-03-01T05:30:00Z,30.3085,-88.1395,1.941,9.77,1111122 
DISL,ioos:station:DISL:CATA:1,2013-03-01T06:00:00Z,30.3085,-88.1395,1.953,9.87,1111122 
DISL,ioos:station:DISL:CATA:1,2013-03-01T06:30:00Z,30.3085,-88.1395,1.966,9.77,1111122 
DISL,ioos:station:DISL:CATA:1,2013-03-01T07:00:00Z,30.3085,-88.1395,1.947,9.73,1111122 
DISL,ioos:station:DISL:CATA:1,2013-03-01T07:30:00Z,30.3085,-88.1395,1.939,9.75,1111122 
DISL,ioos:station:DISL:CATA:1,2013-03-01T08:00:00Z,30.3085,-88.1395,1.949,9.79,1111122 
DISL,ioos:station:DISL:CATA:1,2013-03-01T08:30:00Z,30.3085,-88.1395,1.954,9.78,1111122 
DISL,ioos:station:DISL:CATA:1,2013-03-01T09:00:00Z,30.3085,-88.1395,1.955,9.77,1111122 
DISL,ioos:station:DISL:CATA:1,2013-03-01T09:30:00Z,30.3085,-88.1395,1.953,9.79,1111122 
DISL,ioos:station:DISL:CATA:1,2013-03-01T10:00:00Z,30.3085,-88.1395,1.945,9.82,1111122 
DISL,ioos:station:DISL:CATA:1,2013-03-01T10:30:00Z,30.3085,-88.1395,1.947,9.82,1111122 
DISL,ioos:station:DISL:CATA:1,2013-03-01T11:00:00Z,30.3085,-88.1395,1.948,9.82,1111122 
DISL,ioos:station:DISL:CATA:1,2013-03-01T11:30:00Z,30.3085,-88.1395,1.954,9.85,1111122 
DISL,ioos:station:DISL:CATA:1,2013-03-01T12:00:00Z,30.3085,-88.1395,1.968,9.85,1111122 
DISL,ioos:station:DISL:CATA:1,2013-03-01T12:30:00Z,30.3085,-88.1395,1.983,9.87,1111122 
DISL,ioos:station:DISL:CATA:1,2013-03-01T13:00:00Z,30.3085,-88.1395,2.0,9.85,1111122 
DISL,ioos:station:DISL:CATA:1,2013-03-01T13:30:00Z,30.3085,-88.1395,2.01,9.81,1111122 
DISL,ioos:station:DISL:CATA:1,2013-03-01T14:00:00Z,30.3085,-88.1395,2.005,9.82,1111122 
DISL,ioos:station:DISL:CATA:1,2013-03-01T14:30:00Z,30.3085,-88.1395,2.021,9.82,1111122 
DISL,ioos:station:DISL:CATA:1,2013-03-01T15:00:00Z,30.3085,-88.1395,2.02,9.87,1111122 
DISL,ioos:station:DISL:CATA:1,2013-03-01T15:30:00Z,30.3085,-88.1395,2.068,9.91,1111122 
DISL,ioos:station:DISL:CATA:1,2013-03-01T16:00:00Z,30.3085,-88.1395,2.091,9.92,1111122 
DISL,ioos:station:DISL:CATA:1,2013-03-01T16:30:00Z,30.3085,-88.1395,2.117,9.85,1111122 
DISL,ioos:station:DISL:CATA:1,2013-03-01T17:00:00Z,30.3085,-88.1395,2.134,9.9,1111122 
DISL,ioos:station:DISL:CATA:1,2013-03-01T17:30:00Z,30.3085,-88.1395,2.156,10.03,1111122 
DISL,ioos:station:DISL:CATA:1,2013-03-01T18:00:00Z,30.3085,-88.1395,2.16,10.07,1111122 
DISL,ioos:station:DISL:CATA:1,2013-03-01T18:30:00Z,30.3085,-88.1395,2.166,10.05,1111122 
DISL,ioos:station:DISL:CATA:1,2013-03-01T19:00:00Z,30.3085,-88.1395,2.171,10.1,1111122 
DISL,ioos:station:DISL:CATA:1,2013-03-01T19:30:00Z,30.3085,-88.1395,2.179,10.16,1111122 
DISL,ioos:station:DISL:CATA:1,2013-03-01T20:00:00Z,30.3085,-88.1395,2.184,10.11,1111122 
DISL,ioos:station:DISL:CATA:1,2013-03-01T20:30:00Z,30.3085,-88.1395,2.181,10.19,1111122 
DISL,ioos:station:DISL:CATA:1,2013-03-01T21:00:00Z,30.3085,-88.1395,2.17,10.25,1111122 
DISL,ioos:station:DISL:CATA:1,2013-03-01T21:30:00Z,30.3085,-88.1395,2.163,10.25,1111122 
DISL,ioos:station:DISL:CATA:1,2013-03-01T22:00:00Z,30.3085,-88.1395,2.142,10.32,1111122 
DISL,ioos:station:DISL:CATA:1,2013-03-01T22:30:00Z,30.3085,-88.1395,2.128,10.43,1111122 
DISL,ioos:station:DISL:CATA:1,2013-03-01T23:00:00Z,30.3085,-88.1395,2.115,10.49,1111122 
DISL,ioos:station:DISL:CATA:1,2013-03-01T23:30:00Z,30.3085,-88.1395,2.098,10.52,1111122 
DISL,ioos:station:DISL:CATA:1,2013-03-02T00:00:00Z,30.3085,-88.1395,2.073,10.49,1111122 
DISL,ioos:station:DISL:CATA:1,2013-03-02T00:30:00Z,30.3085,-88.1395,2.042,10.39,1111122 
DISL,ioos:station:DISL:CATA:1,2013-03-02T01:00:00Z,30.3085,-88.1395,2.004,10.3,1111122 
DISL,ioos:station:DISL:CATA:1,2013-03-02T01:30:00Z,30.3085,-88.1395,1.957,10.03,1111122 
DISL,ioos:station:DISL:CATA:1,2013-03-02T02:00:00Z,30.3085,-88.1395,1.927,10.03,1111122 
DISL,ioos:station:DISL:CATA:1,2013-03-02T02:30:00Z,30.3085,-88.1395,1.896,10.02,1111122 
DISL,ioos:station:DISL:CATA:1,2013-03-02T03:00:00Z,30.3085,-88.1395,1.884,10.16,1111122 
DISL,ioos:station:DISL:CATA:1,2013-03-02T03:30:00Z,30.3085,-88.1395,1.867,10.47,1111122 
DISL,ioos:station:DISL:CATA:1,2013-03-02T04:00:00Z,30.3085,-88.1395,1.851,10.43,1111122 
DISL,ioos:station:DISL:CATA:1,2013-03-02T04:30:00Z,30.3085,-88.1395,1.823,10.51,1111122 
DISL,ioos:station:DISL:CATA:1,2013-03-02T05:00:00Z,30.3085,-88.1395,1.812,10.52,1111122 
DISL,ioos:station:DISL:CATA:1,2013-03-02T05:30:00Z,30.3085,-88.1395,1.772,10.54,1111122 
DISL,ioos:station:DISL:CATA:1,2013-03-02T06:00:00Z,30.3085,-88.1395,1.725,10.34,1111122 
DISL,ioos:station:DISL:CATA:1,2013-03-02T06:30:00Z,30.3085,-88.1395,1.739,9.88,1111122 
DISL,ioos:station:DISL:CATA:1,2013-03-02T07:00:00Z,30.3085,-88.1395,1.747,9.85,1111122 
DISL,ioos:station:DISL:CATA:1,2013-03-02T07:30:00Z,30.3085,-88.1395,1.746,9.89,1111122 
DISL,ioos:station:DISL:CATA:1,2013-03-02T08:00:00Z,30.3085,-88.1395,1.778,9.97,1111122 
DISL,ioos:station:DISL:CATA:1,2013-03-02T08:30:00Z,30.3085,-88.1395,1.818,10.03,1111122 
DISL,ioos:station:DISL:CATA:1,2013-03-02T09:00:00Z,30.3085,-88.1395,1.875,10.08,1111122 
DISL,ioos:station:DISL:CATA:1,2013-03-02T09:30:00Z,30.3085,-88.1395,1.898,9.94,1111122 
DISL,ioos:station:DISL:CATA:1,2013-03-02T10:00:00Z,30.3085,-88.1395,1.907,9.96,1111122 
DISL,ioos:station:DISL:CATA:1,2013-03-02T10:30:00Z,30.3085,-88.1395,1.916,9.99,1111122 
DISL,ioos:station:DISL:CATA:1,2013-03-02T11:00:00Z,30.3085,-88.1395,1.912,10.04,1111122 
DISL,ioos:station:DISL:CATA:1,2013-03-02T11:30:00Z,30.3085,-88.1395,1.919,10.04,1111122 
DISL,ioos:station:DISL:CATA:1,2013-03-02T12:00:00Z,30.3085,-88.1395,1.923,10.04,1111122 
DISL,ioos:station:DISL:CATA:1,2013-03-02T12:30:00Z,30.3085,-88.1395,1.931,9.99,1111122 
DISL,ioos:station:DISL:CATA:1,2013-03-02T13:00:00Z,30.3085,-88.1395,1.951,10.0,1111122 
DISL,ioos:station:DISL:CATA:1,2013-03-02T13:30:00Z,30.3085,-88.1395,1.974,10.11,1111122 
DISL,ioos:station:DISL:CATA:1,2013-03-02T14:00:00Z,30.3085,-88.1395,2.005,10.2,1111122 
DISL,ioos:station:DISL:CATA:1,2013-03-02T14:30:00Z,30.3085,-88.1395,2.029,10.27,1111122 
DISL,ioos:station:DISL:CATA:1,2013-03-02T15:00:00Z,30.3085,-88.1395,2.052,10.33,1111122 
DISL,ioos:station:DISL:CATA:1,2013-03-02T15:30:00Z,30.3085,-88.1395,2.064,10.34,1111122 
DISL,ioos:station:DISL:CATA:1,2013-03-02T16:00:00Z,30.3085,-88.1395,2.083,10.35,1111122 
DISL,ioos:station:DISL:CATA:1,2013-03-02T16:30:00Z,30.3085,-88.1395,2.102,10.48,1111122 
DISL,ioos:station:DISL:CATA:1,2013-03-02T17:00:00Z,30.3085,-88.1395,2.131,10.82,1111122 
DISL,ioos:station:DISL:CATA:1,2013-03-02T17:30:00Z,30.3085,-88.1395,2.155,10.98,1111122 
DISL,ioos:station:DISL:CATA:1,2013-03-02T18:00:00Z,30.3085,-88.1395,2.164,11.02,1111122 
DISL,ioos:station:DISL:CATA:1,2013-03-02T18:30:00Z,30.3085,-88.1395,2.186,10.94,1111122 
DISL,ioos:station:DISL:CATA:1,2013-03-02T19:00:00Z,30.3085,-88.1395,2.196,10.67,1111122 
DISL,ioos:station:DISL:CATA:1,2013-03-02T19:30:00Z,30.3085,-88.1395,2.2,10.63,1111122 
DISL,ioos:station:DISL:CATA:1,2013-03-02T20:00:00Z,30.3085,-88.1395,2.214,10.62,1111122 
DISL,ioos:station:DISL:CATA:1,2013-03-02T20:30:00Z,30.3085,-88.1395,2.194,10.66,1111122 
DISL,ioos:station:DISL:CATA:1,2013-03-02T21:00:00Z,30.3085,-88.1395,2.177,10.67,1111122 
DISL,ioos:station:DISL:CATA:1,2013-03-02T21:30:00Z,30.3085,-88.1395,2.166,10.7,1111122 
DISL,ioos:station:DISL:CATA:1,2013-03-02T22:00:00Z,30.3085,-88.1395,2.134,10.71,1111122 
DISL,ioos:station:DISL:CATA:1,2013-03-02T22:30:00Z,30.3085,-88.1395,2.115,10.66,1111122 
DISL,ioos:station:DISL:CATA:1,2013-03-02T23:00:00Z,30.3085,-88.1395,2.07,10.75,1111122 
DISL,ioos:station:DISL:CATA:1,2013-03-02T23:30:00Z,30.3085,-88.1395,2.03,11.06,1111122 
DISL,ioos:station:DISL:CATA:1,2013-03-03T00:00:00Z,30.3085,-88.1395,2.005,11.3,1111122 
DISL,ioos:station:DISL:CATA:1,2013-03-03T00:30:00Z,30.3085,-88.1395,1.956,11.35,1111122 
DISL,ioos:station:DISL:CATA:1,2013-03-03T01:00:00Z,30.3085,-88.1395,1.914,11.28,1111122 
DISL,ioos:station:DISL:CATA:1,2013-03-03T01:30:00Z,30.3085,-88.1395,1.877,11.31,1111122 
DISL,ioos:station:DISL:CATA:1,2013-03-03T02:00:00Z,30.3085,-88.1395,1.839,11.38,1111122 
DISL,ioos:station:DISL:CATA:1,2013-03-03T02:30:00Z,30.3085,-88.1395,1.802,11.35,1111122 
DISL,ioos:station:DISL:CATA:1,2013-03-03T03:00:00Z,30.3085,-88.1395,1.768,11.26,1111122 
DISL,ioos:station:DISL:CATA:1,2013-03-03T03:30:00Z,30.3085,-88.1395,1.75,11.0,1111122 
DISL,ioos:station:DISL:CATA:1,2013-03-03T04:00:00Z,30.3085,-88.1395,1.728,10.67,1111122 
DISL,ioos:station:DISL:CATA:1,2013-03-03T04:30:00Z,30.3085,-88.1395,1.719,10.55,1111122 
DISL,ioos:station:DISL:CATA:1,2013-03-03T05:00:00Z,30.3085,-88.1395,1.722,10.49,1111122 
DISL,ioos:station:DISL:CATA:1,2013-03-03T05:30:00Z,30.3085,-88.1395,1.702,10.5,1111122 
DISL,ioos:station:DISL:CATA:1,2013-03-03T06:00:00Z,30.3085,-88.1395,1.685,10.5,1111122 
DISL,ioos:station:DISL:CATA:1,2013-03-03T06:30:00Z,30.3085,-88.1395,1.681,10.56,1111122 
DISL,ioos:station:DISL:CATA:1,2013-03-03T07:00:00Z,30.3085,-88.1395,1.679,10.59,1111122 
DISL,ioos:station:DISL:CATA:1,2013-03-03T07:30:00Z,30.3085,-88.1395,1.687,10.61,1111122 
DISL,ioos:station:DISL:CATA:1,2013-03-03T08:00:00Z,30.3085,-88.1395,1.706,10.62,1111122 
DISL,ioos:station:DISL:CATA:1,2013-03-03T08:30:00Z,30.3085,-88.1395,1.693,10.62,1111122 
DISL,ioos:station:DISL:CATA:1,2013-03-03T09:00:00Z,30.3085,-88.1395,1.696,10.57,1111122 
DISL,ioos:station:DISL:CATA:1,2013-03-03T09:30:00Z,30.3085,-88.1395,1.708,10.52,1111122 
DISL,ioos:station:DISL:CATA:1,2013-03-03T10:00:00Z,30.3085,-88.1395,1.711,10.53,1111122 
DISL,ioos:station:DISL:CATA:1,2013-03-03T10:30:00Z,30.3085,-88.1395,1.722,10.54,1111122 
DISL,ioos:station:DISL:CATA:1,2013-03-03T11:00:00Z,30.3085,-88.1395,1.736,10.52,1111122 
DISL,ioos:station:DISL:CATA:1,2013-03-03T11:30:00Z,30.3085,-88.1395,1.746,10.52,1111122 
DISL,ioos:station:DISL:CATA:1,2013-03-03T12:00:00Z,30.3085,-88.1395,1.767,10.45,1111122 
DISL,ioos:station:DISL:CATA:1,2013-03-03T12:30:00Z,30.3085,-88.1395,1.775,10.78,1111122 
DISL,ioos:station:DISL:CATA:1,2013-03-03T13:00:00Z,30.3085,-88.1395,1.795,10.9,1111122 
DISL,ioos:station:DISL:CATA:1,2013-03-03T13:30:00Z,30.3085,-88.1395,1.824,10.86,1111122 
DISL,ioos:station:DISL:CATA:1,2013-03-03T14:00:00Z,30.3085,-88.1395,1.856,11.03,1111122 
DISL,ioos:station:DISL:CATA:1,2013-03-03T14:30:00Z,30.3085,-88.1395,1.877,11.0,1111122 
DISL,ioos:station:DISL:CATA:1,2013-03-03T15:00:00Z,30.3085,-88.1395,1.896,11.04,1111122 
DISL,ioos:station:DISL:CATA:1,2013-03-03T15:30:00Z,30.3085,-88.1395,1.915,11.02,1111122 
DISL,ioos:station:DISL:CATA:1,2013-03-03T16:00:00Z,30.3085,-88.1395,1.938,11.07,1111122 
DISL,ioos:station:DISL:CATA:1,2013-03-03T16:30:00Z,30.3085,-88.1395,1.967,11.08,1111122 
DISL,ioos:station:DISL:CATA:1,2013-03-03T17:00:00Z,30.3085,-88.1395,1.993,11.13,1111122 
DISL,ioos:station:DISL:CATA:1,2013-03-03T17:30:00Z,30.3085,-88.1395,2.026,11.34,1111122 
DISL,ioos:station:DISL:CATA:1,2013-03-03T18:00:00Z,30.3085,-88.1395,2.062,11.4,1111122 
DISL,ioos:station:DISL:CATA:1,2013-03-03T18:30:00Z,30.3085,-88.1395,2.099,11.31,1111122 
DISL,ioos:station:DISL:CATA:1,2013-03-03T19:00:00Z,30.3085,-88.1395,2.121,11.41,1111122 
DISL,ioos:station:DISL:CATA:1,2013-03-03T19:30:00Z,30.3085,-88.1395,2.13,11.63,1111122 
DISL,ioos:station:DISL:CATA:1,2013-03-03T20:00:00Z,30.3085,-88.1395,2.158,11.83,1111122 
DISL,ioos:station:DISL:CATA:1,2013-03-03T20:30:00Z,30.3085,-88.1395,2.157,11.95,1111122 
DISL,ioos:station:DISL:CATA:1,2013-03-03T21:00:00Z,30.3085,-88.1395,2.151,11.79,1111122 
DISL,ioos:station:DISL:CATA:1,2013-03-03T21:30:00Z,30.3085,-88.1395,2.167,11.92,1111122 
DISL,ioos:station:DISL:CATA:1,2013-03-03T22:00:00Z,30.3085,-88.1395,2.17,12.23,1111122 
DISL,ioos:station:DISL:CATA:1,2013-03-03T22:30:00Z,30.3085,-88.1395,2.157,12.39,1111122 
DISL,ioos:station:DISL:CATA:1,2013-03-03T23:00:00Z,30.3085,-88.1395,2.138,12.27,1111122 
DISL,ioos:station:DISL:CATA:1,2013-03-03T23:30:00Z,30.3085,-88.1395,2.116,12.22,1111122 
DISL,ioos:station:DISL:CATA:1,2013-03-04T00:00:00Z,30.3085,-88.1395,2.1,12.16,1111122 
DISL,ioos:station:DISL:CATA:1,2013-03-04T00:30:00Z,30.3085,-88.1395,2.073,12.1,1111122 
DISL,ioos:station:DISL:CATA:1,2013-03-04T01:00:00Z,30.3085,-88.1395,2.054,11.86,1111122 
DISL,ioos:station:DISL:CATA:1,2013-03-04T01:30:00Z,30.3085,-88.1395,2.022,11.64,1111122 
DISL,ioos:station:DISL:CATA:1,2013-03-04T02:00:00Z,30.3085,-88.1395,1.985,11.67,1111122 
DISL,ioos:station:DISL:CATA:1,2013-03-04T02:30:00Z,30.3085,-88.1395,1.943,11.63,1111122 
DISL,ioos:station:DISL:CATA:1,2013-03-04T03:00:00Z,30.3085,-88.1395,1.913,11.89,1111122 
DISL,ioos:station:DISL:CATA:1,2013-03-04T03:30:00Z,30.3085,-88.1395,1.887,11.72,1111122 
DISL,ioos:station:DISL:CATA:1,2013-03-04T04:00:00Z,30.3085,-88.1395,1.857,11.69,1111122 
DISL,ioos:station:DISL:CATA:1,2013-03-04T04:30:00Z,30.3085,-88.1395,1.837,11.54,1111122 
DISL,ioos:station:DISL:CATA:1,2013-03-04T05:00:00Z,30.3085,-88.1395,1.806,11.65,1111122 
DISL,ioos:station:DISL:CATA:1,2013-03-04T05:30:00Z,30.3085,-88.1395,1.774,11.84,1111122 
DISL,ioos:station:DISL:CATA:1,2013-03-04T06:00:00Z,30.3085,-88.1395,1.749,12.08,1111122 
DISL,ioos:station:DISL:CATA:1,2013-03-04T06:30:00Z,30.3085,-88.1395,1.724,11.98,1111122 
DISL,ioos:station:DISL:CATA:1,2013-03-04T07:00:00Z,30.3085,-88.1395,1.72,11.68,1111122 
DISL,ioos:station:DISL:CATA:1,2013-03-04T07:30:00Z,30.3085,-88.1395,1.71,11.58,1111122 
DISL,ioos:station:DISL:CATA:1,2013-03-04T08:00:00Z,30.3085,-88.1395,1.734,11.33,1111122 
DISL,ioos:station:DISL:CATA:1,2013-03-04T08:30:00Z,30.3085,-88.1395,1.746,11.19,1111122 
DISL,ioos:station:DISL:CATA:1,2013-03-04T09:00:00Z,30.3085,-88.1395,1.754,11.14,1111122 
DISL,ioos:station:DISL:CATA:1,2013-03-04T09:30:00Z,30.3085,-88.1395,1.772,11.06,1111122 
DISL,ioos:station:DISL:CATA:1,2013-03-04T10:00:00Z,30.3085,-88.1395,1.776,11.0,1111122 
DISL,ioos:station:DISL:CATA:1,2013-03-04T10:30:00Z,30.3085,-88.1395,1.806,10.99,1111122 
DISL,ioos:station:DISL:CATA:1,2013-03-04T11:00:00Z,30.3085,-88.1395,1.821,10.98,1111122 
DISL,ioos:station:DISL:CATA:1,2013-03-04T11:30:00Z,30.3085,-88.1395,1.833,10.95,1111122 
DISL,ioos:station:DISL:CATA:1,2013-03-04T12:00:00Z,30.3085,-88.1395,1.864,10.92,1111122 
DISL,ioos:station:DISL:CATA:1,2013-03-04T12:30:00Z,30.3085,-88.1395,1.88,10.89,1111122 
DISL,ioos:station:DISL:CATA:1,2013-03-04T13:00:00Z,30.3085,-88.1395,1.915,10.83,1111122 
DISL,ioos:station:DISL:CATA:1,2013-03-04T13:30:00Z,30.3085,-88.1395,1.943,10.84,1111122 
DISL,ioos:station:DISL:CATA:1,2013-03-04T14:00:00Z,30.3085,-88.1395,1.979,10.88,1111122 
DISL,ioos:station:DISL:CATA:1,2013-03-04T14:30:00Z,30.3085,-88.1395,2.014,11.1,1111122 
DISL,ioos:station:DISL:CATA:1,2013-03-04T15:00:00Z,30.3085,-88.1395,2.054,11.34,1111122 
DISL,ioos:station:DISL:CATA:1,2013-03-04T15:30:00Z,30.3085,-88.1395,2.083,11.36,1111122 
DISL,ioos:station:DISL:CATA:1,2013-03-04T16:00:00Z,30.3085,-88.1395,2.111,11.41,1111122 
DISL,ioos:station:DISL:CATA:1,2013-03-04T16:30:00Z,30.3085,-88.1395,2.15,11.48,1111122 
DISL,ioos:station:DISL:CATA:1,2013-03-04T17:00:00Z,30.3085,-88.1395,2.18,11.54,1111122 
DISL,ioos:station:DISL:CATA:1,2013-03-04T17:30:00Z,30.3085,-88.1395,2.202,11.82,1111122 
DISL,ioos:station:DISL:CATA:1,2013-03-04T18:00:00Z,30.3085,-88.1395,2.242,11.89,1111122 
DISL,ioos:station:DISL:CATA:1,2013-03-04T18:30:00Z,30.3085,-88.1395,2.281,11.92,1111122 
DISL,ioos:station:DISL:CATA:1,2013-03-04T19:00:00Z,30.3085,-88.1395,2.316,11.93,1111122 
DISL,ioos:station:DISL:CATA:1,2013-03-04T19:30:00Z,30.3085,-88.1395,2.332,11.77,1111122 
DISL,ioos:station:DISL:CATA:1,2013-03-04T20:00:00Z,30.3085,-88.1395,2.352,11.66,1111122 
DISL,ioos:station:DISL:CATA:1,2013-03-04T20:30:00Z,30.3085,-88.1395,2.367,11.7,1111122 
DISL,ioos:station:DISL:CATA:1,2013-03-04T21:00:00Z,30.3085,-88.1395,2.374,11.74,1111122 
DISL,ioos:station:DISL:CATA:1,2013-03-04T21:30:00Z,30.3085,-88.1395,2.374,11.7,1111122 
DISL,ioos:station:DISL:CATA:1,2013-03-04T22:00:00Z,30.3085,-88.1395,2.36,11.76,1111122 
DISL,ioos:station:DISL:CATA:1,2013-03-04T22:30:00Z,30.3085,-88.1395,2.34,11.67,1111122 
DISL,ioos:station:DISL:CATA:1,2013-03-04T23:00:00Z,30.3085,-88.1395,2.33,11.63,1111122 
DISL,ioos:station:DISL:CATA:1,2013-03-04T23:30:00Z,30.3085,-88.1395,2.304,11.4,1111122 
DISL,ioos:station:DISL:CATA:1,2013-03-05T00:00:00Z,30.3085,-88.1395,2.273,11.48,1111122 
DISL,ioos:station:DISL:CATA:1,2013-03-05T00:30:00Z,30.3085,-88.1395,2.251,11.42,1111122 
DISL,ioos:station:DISL:CATA:1,2013-03-05T01:00:00Z,30.3085,-88.1395,2.209,11.41,1111122 
DISL,ioos:station:DISL:CATA:1,2013-03-05T01:30:00Z,30.3085,-88.1395,2.19,11.23,1111122 
DISL,ioos:station:DISL:CATA:1,2013-03-05T02:00:00Z,30.3085,-88.1395,2.157,11.07,1111122 
DISL,ioos:station:DISL:CATA:1,2013-03-05T02:30:00Z,30.3085,-88.1395,2.119,11.15,1111122 
DISL,ioos:station:DISL:CATA:1,2013-03-05T03:00:00Z,30.3085,-88.1395,2.088,11.25,1111122 
DISL,ioos:station:DISL:CATA:1,2013-03-05T03:30:00Z,30.3085,-88.1395,2.06,11.34,1111122 
DISL,ioos:station:DISL:CATA:1,2013-03-05T04:00:00Z,30.3085,-88.1395,2.029,11.43,1111122 
DISL,ioos:station:DISL:CATA:1,2013-03-05T04:30:00Z,30.3085,-88.1395,1.997,11.49,1111122 
DISL,ioos:station:DISL:CATA:1,2013-03-05T05:00:00Z,30.3085,-88.1395,1.976,11.37,1111122 
DISL,ioos:station:DISL:CATA:1,2013-03-05T05:30:00Z,30.3085,-88.1395,1.956,11.16,1111122 
DISL,ioos:station:DISL:CATA:1,2013-03-05T06:00:00Z,30.3085,-88.1395,1.941,11.14,1111122 
DISL,ioos:station:DISL:CATA:1,2013-03-05T06:30:00Z,30.3085,-88.1395,1.911,11.01,1111122 
DISL,ioos:station:DISL:CATA:1,2013-03-05T07:00:00Z,30.3085,-88.1395,1.887,10.88,1111122 
DISL,ioos:station:DISL:CATA:1,2013-03-05T07:30:00Z,30.3085,-88.1395,1.889,10.79,1111122 
DISL,ioos:station:DISL:CATA:1,2013-03-05T08:00:00Z,30.3085,-88.1395,1.874,10.72,1111122 
DISL,ioos:station:DISL:CATA:1,2013-03-05T08:30:00Z,30.3085,-88.1395,1.868,10.66,1111122 
DISL,ioos:station:DISL:CATA:1,2013-03-05T09:00:00Z,30.3085,-88.1395,1.878,10.65,1111122 
DISL,ioos:station:DISL:CATA:1,2013-03-05T09:30:00Z,30.3085,-88.1395,1.875,10.63,1111122 
DISL,ioos:station:DISL:CATA:1,2013-03-05T10:00:00Z,30.3085,-88.1395,1.881,10.61,1111122 
DISL,ioos:station:DISL:CATA:1,2013-03-05T10:30:00Z,30.3085,-88.1395,1.898,10.6,1111122 
DISL,ioos:station:DISL:CATA:1,2013-03-05T11:00:00Z,30.3085,-88.1395,1.91,10.58,1111122 
DISL,ioos:station:DISL:CATA:1,2013-03-05T11:30:00Z,30.3085,-88.1395,1.93,10.58,1111122 
DISL,ioos:station:DISL:CATA:1,2013-03-05T12:00:00Z,30.3085,-88.1395,1.938,10.52,1111122 
DISL,ioos:station:DISL:CATA:1,2013-03-05T12:30:00Z,30.3085,-88.1395,1.96,10.52,1111122 
DISL,ioos:station:DISL:CATA:1,2013-03-05T13:00:00Z,30.3085,-88.1395,1.991,10.52,1111122 
DISL,ioos:station:DISL:CATA:1,2013-03-05T13:30:00Z,30.3085,-88.1395,2.021,10.48,1111122 
DISL,ioos:station:DISL:CATA:1,2013-03-05T14:00:00Z,30.3085,-88.1395,2.061,10.33,1111122 
DISL,ioos:station:DISL:CATA:1,2013-03-05T14:30:00Z,30.3085,-88.1395,2.078,10.47,1111122 
DISL,ioos:station:DISL:CATA:1,2013-03-05T15:00:00Z,30.3085,-88.1395,2.118,10.59,1111122 
DISL,ioos:station:DISL:CATA:1,2013-03-05T15:30:00Z,30.3085,-88.1395,2.151,10.62,1111122 
DISL,ioos:station:DISL:CATA:1,2013-03-05T16:00:00Z,30.3085,-88.1395,2.176,10.64,1111122 
DISL,ioos:station:DISL:CATA:1,2013-03-05T16:30:00Z,30.3085,-88.1395,2.201,10.68,1111122 
DISL,ioos:station:DISL:CATA:1,2013-03-05T17:00:00Z,30.3085,-88.1395,2.236,10.71,1111122 
DISL,ioos:station:DISL:CATA:1,2013-03-05T17:30:00Z,30.3085,-88.1395,2.265,10.75,1111122 
DISL,ioos:station:DISL:CATA:1,2013-03-05T18:00:00Z,30.3085,-88.1395,2.304,11.01,1111122 
DISL,ioos:station:DISL:CATA:1,2013-03-05T18:30:00Z,30.3085,-88.1395,2.34,11.43,1111122 
DISL,ioos:station:DISL:CATA:1,2013-03-05T19:00:00Z,30.3085,-88.1395,2.383,11.45,1111122 
DISL,ioos:station:DISL:CATA:1,2013-03-05T19:30:00Z,30.3085,-88.1395,2.424,11.56,1111122 
DISL,ioos:station:DISL:CATA:1,2013-03-05T20:00:00Z,30.3085,-88.1395,2.452,11.39,1111122 
DISL,ioos:station:DISL:CATA:1,2013-03-05T20:30:00Z,30.3085,-88.1395,2.49,11.39,1111122 
DISL,ioos:station:DISL:CATA:1,2013-03-05T21:00:00Z,30.3085,-88.1395,2.532,11.52,1111122 
DISL,ioos:station:DISL:CATA:1,2013-03-05T21:30:00Z,30.3085,-88.1395,2.557,11.72,1111122 
DISL,ioos:station:DISL:CATA:1,2013-03-05T22:00:00Z,30.3085,-88.1395,2.565,11.71,1111122 
DISL,ioos:station:DISL:CATA:1,2013-03-05T22:30:00Z,30.3085,-88.1395,2.546,11.44,1111122 
DISL,ioos:station:DISL:CATA:1,2013-03-05T23:00:00Z,30.3085,-88.1395,2.561,11.27,1111122 
DISL,ioos:station:DISL:CATA:1,2013-03-05T23:30:00Z,30.3085,-88.1395,2.559,11.23,1111122 
DISL,ioos:station:DISL:CATA:1,2013-03-06T00:00:00Z,30.3085,-88.1395,2.567,11.29,1111122 
DISL,ioos:station:DISL:CATA:1,2013-03-06T00:30:00Z,30.3085,-88.1395,2.533,11.42,1111122 
DISL,ioos:station:DISL:CATA:1,2013-03-06T01:00:00Z,30.3085,-88.1395,2.493,11.11,1111122 
DISL,ioos:station:DISL:CATA:1,2013-03-06T01:30:00Z,30.3085,-88.1395,2.49,10.71,1111122 
DISL,ioos:station:DISL:CATA:1,2013-03-06T02:00:00Z,30.3085,-88.1395,2.436,10.47,1111122 
DISL,ioos:station:DISL:CATA:1,2013-03-06T02:30:00Z,30.3085,-88.1395,2.359,10.55,1111122 
DISL,ioos:station:DISL:CATA:1,2013-03-06T03:00:00Z,30.3085,-88.1395,2.291,10.5,1111122 
DISL,ioos:station:DISL:CATA:1,2013-03-06T03:30:00Z,30.3085,-88.1395,2.258,9.43,1111122 
DISL,ioos:station:DISL:CATA:1,2013-03-06T04:00:00Z,30.3085,-88.1395,2.209,9.15,1111122 
DISL,ioos:station:DISL:CATA:1,2013-03-06T04:30:00Z,30.3085,-88.1395,2.152,9.25,1111122 
DISL,ioos:station:DISL:CATA:1,2013-03-06T05:00:00Z,30.3085,-88.1395,2.092,9.58,1111122 
DISL,ioos:station:DISL:CATA:1,2013-03-06T05:30:00Z,30.3085,-88.1395,2.025,9.8,1111122 
DISL,ioos:station:DISL:CATA:1,2013-03-06T06:00:00Z,30.3085,-88.1395,1.985,9.92,1111122 
DISL,ioos:station:DISL:CATA:1,2013-03-06T06:30:00Z,30.3085,-88.1395,1.946,10.04,1111122 
DISL,ioos:station:DISL:CATA:1,2013-03-06T07:00:00Z,30.3085,-88.1395,1.919,10.2,1111122 
DISL,ioos:station:DISL:CATA:1,2013-03-06T07:30:00Z,30.3085,-88.1395,1.895,10.26,1111122 
DISL,ioos:station:DISL:CATA:1,2013-03-06T08:00:00Z,30.3085,-88.1395,1.869,10.21,1111122 
DISL,ioos:station:DISL:CATA:1,2013-03-06T08:30:00Z,30.3085,-88.1395,1.87,10.18,1111122 
DISL,ioos:station:DISL:CATA:1,2013-03-06T09:00:00Z,30.3085,-88.1395,1.887,10.2,1111122 
DISL,ioos:station:DISL:CATA:1,2013-03-06T09:30:00Z,30.3085,-88.1395,1.902,10.26,1111122 
DISL,ioos:station:DISL:CATA:1,2013-03-06T10:00:00Z,30.3085,-88.1395,1.848,10.31,1111122 
DISL,ioos:station:DISL:CATA:1,2013-03-06T10:30:00Z,30.3085,-88.1395,1.812,10.31,1111122 
DISL,ioos:station:DISL:CATA:1,2013-03-06T11:00:00Z,30.3085,-88.1395,1.795,10.33,1111122 
DISL,ioos:station:DISL:CATA:1,2013-03-06T11:30:00Z,30.3085,-88.1395,1.771,10.33,1111122 
DISL,ioos:station:DISL:CATA:1,2013-03-06T12:00:00Z,30.3085,-88.1395,1.765,10.33,1111122 
DISL,ioos:station:DISL:CATA:1,2013-03-06T12:30:00Z,30.3085,-88.1395,1.786,10.29,1111122 
DISL,ioos:station:DISL:CATA:1,2013-03-06T13:00:00Z,30.3085,-88.1395,1.764,10.28,1111122 
DISL,ioos:station:DISL:CATA:1,2013-03-06T13:30:00Z,30.3085,-88.1395,1.769,10.21,1111122 
DISL,ioos:station:DISL:CATA:1,2013-03-06T14:00:00Z,30.3085,-88.1395,1.811,10.11,1111122 